[[{"header":{"parameterUnit":"m.s-1","parameterCategory":1,"la1":30.2991,"la2":30.254,"lo1":-89.0895,"lo2":-89.0444,"dy":0.0017,"dx":0.0017,"nx":28,"ny":28,"refTime":"2025-09-09T03:00:00:Z","depth":0,"parameterNumber":2,"parameterNumberName":"U-component_of_WINDS"},"data":[0,0,0,0,0,0,0,0,0,0,0,0,0,0,0,0,0,0,0,0,0,0,0,0,0,0,0,0,0,0,0,0,0,0,0,0,0,0,0,0,0,0,0,0,0,0,0,0,0,0,0,0,0,0,0,0,0,0,-6.5811,-6.5812,0,-6.5896,-6.5897,-6.5898,-6.5756,-6.5752,-6.5747,-6.5742,-6.5823,-6.5829,-6.5836,0,0,0,0,0,0,0,0,0,0,0,0,0,-6.5518,-6.5524,-6.5811,-6.5812,-6.5813,-6.5896,-6.5897,-6.5898,-6.5757,-6.5751,-6.5746,-6.574,-6.5821,-6.5828,-6.5836,0,0,0,0,0,0,0,0,0,0,0,0,0,-6.5628,-6.5526,-6.581,-6.5753,-6.5748,-6.5895,-6.5897,-6.5898,-6.5759,-6.5751,-6.5744,-6.5737,-6.5818,-6.5828,-6.5837,-6.6042,0,0,-6.5868,-6.5872,0,0,0,0,0,0,0,0,-6.5622,-6.5639,-6.576,-6.5757,-6.5752,-6.5808,-6.5823,-6.5946,-6.576,-6.5755,-6.5742,-6.5734,-6.5823,-6.5832,-6.5864,-6.6046,-6.605,-6.5869,-6.5875,-6.5879,-6.5882,0,0,0,0,0,0,0,-6.5615,-6.5635,-6.5844,-6.5762,-6.5757,-6.572,-6.5728,-6.5846,-6.5828,-6.5754,-6.5744,-6.5757,-6.582,-6.5855,-6.5865,-6.6051,-6.5868,-6.5877,-6.5883,-6.5887,-6.64,-6.6408,0,0,0,0,0,0,-6.5615,-6.5629,-6.5841,-6.5846,-6.5669,-6.5731,-6.574,-6.5797,-6.5826,-6.5824,-6.5763,-6.575,-6.5841,-6.5853,-6.5867,-6.6105,-6.5879,-6.5888,-6.5894,-6.6393,-6.6402,-6.6411,0,0,0,0,0,0,-6.561,-6.5636,-6.5838,-6.5735,-6.5758,-6.5744,-6.581,-6.5803,-6.5838,-6.5833,-6.5828,-6.5802,-6.5836,-6.5853,-6.5999,-6.6106,-6.5892,-6.5902,-6.6384,-6.6396,-6.6406,-6.6585,0,0,0,0,0,0,-6.5602,-6.5635,-6.5714,-6.5738,-6.5764,-6.5972,-6.5817,-6.581,-6.5856,-6.584,-6.5868,-6.5866,-6.5832,-6.5985,-6.6009,-6.6115,-6.5909,-6.6374,-6.6389,-6.6403,-6.6569,-6.6601,-6.6628,0,0,0,0,0,-6.5592,-6.576,-6.5719,-6.5745,-6.5864,-6.5978,-6.5992,-6.5951,-6.5865,-6.5943,-6.594,-6.5865,-6.6092,-6.6001,-6.6027,-6.6138,-6.6367,-6.6385,-6.6402,-6.6556,-6.6595,-6.6627,0,0,0,0,0,0,-6.5747,-6.5763,-6.5717,-6.5899,-6.5939,-6.5954,-6.6051,-6.5994,-6.6057,-6.6039,-6.5984,-6.5991,-6.6148,-6.6158,-6.6058,-6.6336,-6.6214,-6.6238,-6.6323,-6.636,-6.6388,-6.638,-6.5917,0,0,0,0,0,-6.5803,-6.5897,-6.5904,-6.6064,-6.6087,-6.6067,-6.6114,-6.6079,-6.6117,-6.6132,-6.614,-6.6177,-6.6256,-6.6309,-6.6382,-6.6571,-6.6573,-6.666,-6.669,-6.6714,-6.6733,-6.6829,-6.6867,-6.6467,-6.6467,-6.6467,0,0,-6.5918,-6.5938,-6.6,-6.6096,-6.6122,-6.6217,-6.6081,-6.6188,-6.6257,-6.6148,-6.6285,-6.6293,-6.6331,-6.6499,-6.6573,-6.6512,-6.6844,-6.6736,-6.6755,-6.6761,-6.6851,-6.6889,-6.6923,-6.6479,-6.6477,-6.6475,0,0,-6.6175,-6.6203,-6.6336,-6.6366,-6.6409,-6.6394,-6.6427,-6.6452,-6.6452,-6.659,-6.6509,-6.659,-6.6728,-6.6757,-6.679,-6.7059,-6.6991,-6.7084,-6.7236,-6.7331,-6.7362,-6.739,-6.7481,-6.7515,-6.7104,-6.7105,-6.7105,0,-6.6312,-6.6455,-6.6412,-6.6524,-6.6566,-6.6475,-6.6607,-6.6638,-6.6702,-6.6731,-6.6663,-6.6833,-6.6853,-6.7024,-6.7089,-6.7121,-6.7152,-6.7078,-6.7362,-6.7389,-6.7414,-6.75,-6.7535,-6.7116,-6.7114,-6.7113,-6.7112,0,-6.6618,-6.6718,-6.6821,-6.6886,-6.694,-6.7063,-6.7035,-6.7095,-6.7056,-6.7047,-6.7187,-6.7208,-6.7281,-6.732,-6.7283,-6.7486,-6.7446,-6.7372,-6.7247,-6.7463,-6.7543,-6.7576,-6.7131,-6.7127,-6.7124,-6.7121,0,0,-6.6972,-6.7013,-6.7051,-6.7078,-6.7118,-6.7193,-6.731,-6.7384,-6.7434,-6.7482,-6.7575,-6.7694,-6.7625,-6.7662,-6.7627,-6.7712,-6.7917,-6.7626,-6.7625,-6.7675,-6.8136,-6.8188,-6.8227,-6.7874,-6.788,-6.7885,-6.8131,0,-6.7225,-6.7428,-6.7393,-6.7588,-6.7678,-6.7592,-6.7693,-6.7728,-6.7723,-6.7796,-6.779,-6.7874,-6.7779,-6.78,-6.788,-6.7875,-6.8008,-6.7858,-6.7956,-6.796,-6.7944,-6.827,-6.8326,-6.8556,-6.8162,-6.8168,-6.8172,0,-6.7545,-6.7606,-6.7811,-6.7835,-6.7871,-6.7963,-6.8026,-6.8099,-6.8134,-6.8125,-6.8168,-6.8116,-6.8229,-6.8108,-6.826,-6.8158,-6.8197,-6.8201,-6.8208,-6.8212,-6.8075,-6.8277,-6.863,-6.8662,-6.8221,-6.8217,-6.8214,0,-6.7777,-6.791,-6.8048,-6.8075,-6.8108,-6.8174,-6.819,-6.8219,-6.8265,-6.832,-6.8348,-6.8416,-6.8451,-6.8503,-6.847,-6.8386,-6.8627,-6.8503,-6.8618,-6.8619,-6.8668,-6.8664,-6.9027,-6.8702,-6.8702,-6.8701,-6.8701,0,-6.8059,-6.8186,-6.8152,-6.8237,-6.8377,-6.8335,-6.8473,-6.8479,-6.8505,-6.8587,-6.8519,-6.8597,-6.8551,-6.8625,-6.86,-6.8727,-6.8745,-6.8737,-6.8728,-6.874,-6.8741,-6.8761,-6.8742,-6.871,-6.8708,-6.8707,-6.8705,0,-6.8338,-6.8322,-6.8467,-6.8487,-6.8495,-6.8596,-6.8611,-6.8689,-6.868,-6.8785,-6.8807,-6.8792,-6.8875,-6.8849,-6.8938,-6.8921,-6.9081,-6.9054,-6.9069,-6.906,-6.9174,-6.9162,-6.9558,-6.9605,-6.9255,-6.9259,-6.9262,0,-6.8517,-6.8613,-6.8644,-6.8695,-6.8717,-6.88,-6.8847,-6.8809,-6.8859,-6.8907,-6.8978,-6.9056,-6.9115,-6.9251,-6.9246,-6.9313,-6.9284,-6.9418,-6.9293,-6.9301,-6.9279,-6.9272,-6.9279,-6.9441,-6.9445,-6.9449,-6.9451,0,-6.8833,-6.882,-6.8891,-6.896,-6.9018,-6.9069,-6.9114,-6.9159,-6.9124,-6.9184,-6.9269,-6.9315,-6.9407,-6.9482,-6.9543,-6.9556,-6.9497,-6.9492,-6.952,-6.9531,-6.9534,-6.9529,-6.9131,-6.9481,-6.9478,-6.9476,-6.9474,-6.9473,-6.9064,-6.9144,-6.9178,-6.9258,-6.9289,-6.9332,-6.9405,-6.9406,-6.9477,-6.9549,-6.9523,-6.9619,-6.965,-6.9725,-6.9747,-6.982,-6.9768,-6.9811,-6.9821,-6.9831,-6.9843,-6.9528,-6.9831,-6.9831,-6.983,-6.9829,-6.9828,0,-6.9372,-6.939,-6.9465,-6.953,-6.9593,-6.9536,-6.9582,-6.9637,-6.9724,-6.9759,-6.9819,-6.9915,-6.9989,-6.9991,-7.0058,-7.0116,-7.009,-7.0134,-7.0126,-7.013,-6.9888,-6.9854,-7.0154,-7.0154,-7.0154,-7.0154,-7.0154,-7.0153,-6.9539,-6.967,-6.9661,-6.9806,-6.9822,-6.9917,-6.9948,-6.9986,-7.0014,-7.0125,-7.0186,-7.0188,-7.0209,-7.0277,-7.0341,-7.0339,-7.0365,-7.0419,-7.0406,-7.018,-7.0147,-7.0116,-7.0083,-7.0426,-7.0427,-7.0641,-7.0643,-7.0644]},{"header":{"parameterUnit":"m.s-1","parameterCategory":1,"la1":30.2991,"la2":30.254,"lo1":-89.0895,"lo2":-89.0444,"dy":0.0017,"dx":0.0017,"nx":28,"ny":28,"refTime":"2025-09-09T03:00:00:Z","depth":0,"parameterNumber":3,"parameterNumberName":"V-component_of_WINDS"},"data":[0,0,0,0,0,0,0,0,0,0,0,0,0,0,0,0,0,0,0,0,0,0,0,0,0,0,0,0,0,0,0,0,0,0,0,0,0,0,0,0,0,0,0,0,0,0,0,0,0,0,0,0,0,0,0,0,0,0,0.2334,0.2333,0,0.2239,0.2238,0.2237,0.2135,0.2133,0.2132,0.2131,0.2029,0.2027,0.2026,0,0,0,0,0,0,0,0,0,0,0,0,0,0.2423,0.2422,0.2334,0.2333,0.2332,0.2239,0.2238,0.2237,0.2135,0.2133,0.2132,0.213,0.2029,0.2028,0.2026,0,0,0,0,0,0,0,0,0,0,0,0,0,0.2362,0.2421,0.2334,0.227,0.2263,0.224,0.2238,0.2236,0.2135,0.2133,0.2131,0.2129,0.203,0.2028,0.2026,0.2057,0,0,0.202,0.2019,0,0,0,0,0,0,0,0,0.2365,0.2359,0.228,0.2274,0.2267,0.2197,0.2232,0.2176,0.2136,0.2184,0.2131,0.2128,0.2086,0.2079,0.2066,0.2052,0.2047,0.2019,0.2018,0.2017,0.2017,0,0,0,0,0,0,0,0.237,0.2362,0.2296,0.2279,0.2271,0.2244,0.2233,0.2221,0.2148,0.2179,0.2172,0.2162,0.2082,0.2068,0.2063,0.2046,0.2019,0.2018,0.2016,0.2016,0.2053,0.2055,0,0,0,0,0,0,0.2384,0.2366,0.2299,0.2293,0.2312,0.2245,0.2232,0.2221,0.2148,0.2135,0.2164,0.2158,0.2073,0.2066,0.2059,0.2091,0.2017,0.2015,0.2014,0.2051,0.2054,0.2056,0,0,0,0,0,0,0.2387,0.2379,0.2303,0.2328,0.2316,0.2245,0.2234,0.2221,0.2207,0.2137,0.2123,0.2164,0.2071,0.2062,0.2059,0.2086,0.2014,0.2013,0.2048,0.2052,0.2055,0.2156,0,0,0,0,0,0,0.239,0.2381,0.2393,0.2329,0.2315,0.2306,0.2236,0.222,0.2204,0.2195,0.2133,0.212,0.2069,0.2062,0.2057,0.2082,0.2011,0.2046,0.205,0.2054,0.215,0.2162,0.2173,0,0,0,0,0,0.2393,0.2423,0.2394,0.2386,0.2329,0.2307,0.2299,0.2241,0.2207,0.2218,0.2173,0.2122,0.2084,0.2063,0.2056,0.2081,0.2044,0.2049,0.2054,0.2144,0.216,0.2173,0,0,0,0,0,0,0.249,0.2414,0.238,0.2391,0.2357,0.229,0.2302,0.2259,0.2232,0.2224,0.2151,0.2138,0.2143,0.2111,0.2089,0.2107,0.2057,0.2061,0.2128,0.2142,0.2154,0.2161,0.2009,0,0,0,0,0,0.2513,0.2503,0.2436,0.2452,0.2437,0.2373,0.2362,0.232,0.2281,0.2265,0.222,0.2183,0.2162,0.215,0.2127,0.2145,0.213,0.2158,0.217,0.218,0.2184,0.2192,0.2204,0.2073,0.2073,0.2072,0,0,0.2559,0.2516,0.2514,0.2471,0.2439,0.2431,0.2361,0.2354,0.2347,0.2263,0.2258,0.2224,0.2177,0.2185,0.2186,0.2159,0.2217,0.2186,0.2195,0.2193,0.2198,0.2211,0.2222,0.2076,0.2075,0.2075,0,0,0.264,0.2606,0.2617,0.2587,0.2542,0.2499,0.2502,0.2442,0.2417,0.2411,0.2349,0.2338,0.2304,0.2275,0.2255,0.2327,0.2279,0.2321,0.2381,0.239,0.24,0.2409,0.2435,0.2445,0.2325,0.2325,0.2326,0,0.2703,0.2688,0.2627,0.2625,0.2607,0.2534,0.2543,0.2517,0.2466,0.2455,0.2426,0.2383,0.2347,0.2347,0.2365,0.2351,0.2352,0.2328,0.2404,0.2412,0.2419,0.2444,0.2454,0.2331,0.233,0.233,0.2329,0,0.2769,0.2759,0.2773,0.2728,0.2712,0.2716,0.2654,0.2645,0.2605,0.2566,0.2561,0.2515,0.2482,0.2479,0.2439,0.2474,0.2459,0.2418,0.2365,0.2438,0.246,0.2469,0.2339,0.2337,0.2335,0.2334,0,0,0.2906,0.2829,0.2835,0.2814,0.2759,0.275,0.2751,0.2721,0.2715,0.2682,0.2681,0.2655,0.2617,0.2595,0.2551,0.2558,0.2619,0.2516,0.2514,0.2538,0.2656,0.2688,0.27,0.2588,0.2589,0.259,0.266,0,0.2977,0.2975,0.2921,0.2934,0.2925,0.2856,0.2856,0.2822,0.2785,0.2771,0.273,0.2713,0.2665,0.2651,0.2655,0.2611,0.2642,0.2605,0.2585,0.2585,0.26,0.2711,0.2744,0.2812,0.2668,0.267,0.2671,0,0.306,0.3035,0.3048,0.2994,0.2988,0.299,0.2959,0.2947,0.2907,0.2879,0.2856,0.2807,0.2802,0.2754,0.2747,0.2723,0.2711,0.2689,0.269,0.2686,0.2633,0.271,0.2832,0.2843,0.2683,0.2682,0.2681,0,0.316,0.3129,0.3133,0.3118,0.3055,0.3058,0.3031,0.2989,0.2976,0.2948,0.2938,0.291,0.2895,0.2873,0.2818,0.2787,0.2817,0.2763,0.2794,0.2796,0.2804,0.2804,0.2926,0.2796,0.2796,0.2796,0.2795,0,0.3246,0.3256,0.3178,0.3181,0.3191,0.3128,0.3139,0.3106,0.3069,0.3064,0.3001,0.2997,0.2923,0.291,0.2866,0.2868,0.2861,0.2838,0.2827,0.2844,0.2848,0.2836,0.283,0.2798,0.2798,0.2797,0.2797,0,0.3359,0.3307,0.3307,0.3249,0.3234,0.3245,0.3194,0.3193,0.3153,0.3147,0.3142,0.3079,0.3061,0.3003,0.297,0.294,0.2955,0.2932,0.297,0.2962,0.2997,0.2995,0.3116,0.3129,0.2991,0.2992,0.2993,0,0.3418,0.3425,0.3368,0.3361,0.3338,0.3326,0.3313,0.3251,0.3239,0.3195,0.32,0.3178,0.3156,0.313,0.3081,0.3055,0.3032,0.3076,0.3027,0.3046,0.3033,0.3034,0.3035,0.3087,0.3089,0.309,0.3091,0,0.3527,0.3501,0.3485,0.346,0.3446,0.3423,0.3396,0.3393,0.3324,0.3314,0.3296,0.328,0.3248,0.3226,0.3193,0.3164,0.3117,0.3107,0.3113,0.3132,0.3153,0.3143,0.2999,0.3105,0.3103,0.3102,0.3102,0.3101,0.3614,0.3618,0.358,0.3564,0.3538,0.3515,0.3512,0.3473,0.3458,0.3428,0.3392,0.3379,0.3339,0.329,0.3265,0.3253,0.3227,0.3235,0.3237,0.3241,0.325,0.3156,0.3246,0.3246,0.3245,0.3245,0.3245,0,0.3721,0.3693,0.368,0.3646,0.3633,0.3592,0.356,0.3552,0.3542,0.351,0.3491,0.3471,0.345,0.34,0.3374,0.3374,0.3352,0.337,0.3369,0.3364,0.3274,0.3272,0.3388,0.3388,0.3388,0.3388,0.3388,0.3388,0.3775,0.378,0.375,0.3741,0.3713,0.3701,0.3687,0.3665,0.3639,0.3621,0.3604,0.3572,0.3533,0.3504,0.3483,0.3469,0.3462,0.3487,0.3466,0.3383,0.337,0.3357,0.3354,0.3486,0.3487,0.3557,0.3557,0.3558]}]]